Regional Weather Roundup
Issued by NWS

Home | Current Version | Previous Version | Graphics & Text | Print | Product List | Glossary Off
Versions: 1 2 3 4 5 6 7 8 9 10 11 12 13 14 15 16 17 18 19 20 21 22 23 24 25 26 27 28 29 30 31 32 33 34 35 36 37 38 39 40 41 42 43 44 45 46 47 48 49 50

000
ASUS43 KMKX 201011
RWRWI

WISCONSIN REGIONAL WEATHER ROUNDUP
NATIONAL WEATHER SERVICE MILWAUKEE/SULLIVAN WI
400 AM CST SAT DEC 20 2014

NOTE: "FAIR" INDICATES FEW OR NO CLOUDS BELOW 12,000 FEET WITH NO
SIGNIFICANT WEATHER AND/OR OBSTRUCTIONS TO VISIBILITY.

WIZ001-002-006>008-014>016-023>028-201100-
NORTHWEST WISCONSIN

CITY           SKY/WX    TMP DP  RH WIND       PRES   REMARKS
SUPERIOR ARPT  CLOUDY    28  25  87 S6        30.17S WCI  21
ASHLAND        CLOUDY    26  23  88 S6        30.20R WCI  19
HAYWARD        CLOUDY    26  21  81 S7        30.17S WCI  18
SIREN          CLOUDY    28  24  84 S7        30.16S WCI  21
CUMBERLAND     CLOUDY    27  23  86 S9        30.16S WCI  17
RICE LAKE      CLOUDY    27  23  84 SE6       30.19S WCI  21
CHETEK         CLOUDY    26  23  87 SE6       30.19S WCI  20
LADYSMITH      CLOUDY    26  23  88 SE6       30.20F WCI  20
EAU CLAIRE     CLOUDY    28  21  75 S6        30.20S WCI  22
MENOMONIE      CLOUDY    29  24  79 SE6       30.20S WCI  23
NEW RICHMOND   CLOUDY    28  26  89 S10       30.17S WCI  19
OSCEOLA        CLOUDY    29  26  87 SE9       30.19S WCI  21
$$

WIZ003>005-009-010-017-018-201100-
NORTH CENTRAL WISCONSIN

CITY           SKY/WX    TMP DP  RH WIND       PRES   REMARKS
MANITOWISH WTR CLOUDY    22  22  98 S3        30.16F
ARBOR VITAE    CLOUDY    23  21  92 S5        30.17F WCI  17
WOODRUFF       CLOUDY    23  21  92 S5        30.17F WCI  17
RHINELANDER    CLOUDY    21  19  92 SW5       30.19S FOG     WCI  15
EAGLE RIVER    CLOUDY    20  20  98 CALM      30.17S
LAND O LAKES   CLOUDY    20  19  96 CALM      30.18S
PHILLIPS       CLOUDY    23  22  95 S5        30.17F WCI  17
TOMAHAWK       CLOUDY    23  21  93 CALM      30.20S FOG
MEDFORD        CLOUDY    23  21  93 SE5       30.19S FOG     WCI  17
MERRILL        CLOUDY    23  22  95 CALM      30.21S FOG
$$

WIZ029-030-035-036-043>047-201100-
CENTRAL WISCONSIN

CITY           SKY/WX    TMP DP  RH WIND       PRES   REMARKS
WAUSAU         CLOUDY    23  21  92 S5        30.21S WCI  17
MOSINEE        CLOUDY    23  23 100 SE5       30.23S WCI  17
MARSHFIELD     CLOUDY    24  22  91 S6        30.21S FOG     WCI  17
STEVENS POINT  CLOUDY    22  20  90 CALM      30.24S
WAUPACA        CLOUDY    27  23  85 CALM      30.26S
WAUTOMA        CLOUDY    26  23  88 CALM      30.26F
WISC RAPIDS    CLOUDY    24  20  84 S3        30.25F
CAMP DOUGLAS   MIX PCPN  26  26 100 SE5       30.24S WCI  20
$$

WIZ011>013-019>022-031-037>040-048>050-201100-
NORTHEAST WISCONSIN

CITY           SKY/WX    TMP DP  RH WIND       PRES   REMARKS
ANTIGO         CLOUDY    21  20  96 CALM      30.20S
SHAWANO        PTCLDY    19  16  90 CALM      30.27S
OCONTO         CLOUDY    15  15  98 CALM      30.28R
STURGEON BAY   CLOUDY    23  19  86 CALM      30.28S
GREEN BAY      MOCLDY    22  19  89 CALM      30.27F
MANITOWOC      CLOUDY    28  24  85 NW7       30.27S WCI  21
APPLETON       CLOUDY    21  19  93 CALM      30.26F
CLINTONVILLE   CLOUDY    21  19  93 CALM      30.26S
OSHKOSH        CLOUDY    21  18  88 CALM      30.26F
$$

WIZ032>034-041-042-053>061-201100-
SOUTHWEST WISCONSIN

CITY           SKY/WX    TMP DP  RH WIND       PRES   REMARKS
LA CROSSE      CLOUDY    30  23  75 S7        30.23S WCI  23
SPARTA         CLOUDY    28  22  78 S3        30.24F
VIROQUA        CLOUDY    26  24  93 S6        30.21S WCI  20
BOSCOBEL       CLOUDY    29  23  78 CALM      30.26S
PRAIRIE DU CHI CLOUDY    28  24  82 E5        30.25S WCI  23
PLATTEVILLE    CLOUDY    27  25  92 CALM      30.24S
$$

WIZ056-057-062-063-064-067-068-201100-
SOUTH CENTRAL WISCONSIN

CITY           SKY/WX    TMP DP  RH WIND       PRES   REMARKS
REEDSBURG      CLOUDY    25  23  90 CALM      30.25S
BARABOO/DELLS  LGT SNOW  25  23  90 S5        30.24F WCI  20
LONE ROCK      CLOUDY    30  23  75 SE3       30.26F
MINERAL POINT  CLOUDY    28  27  93 SE3       30.23S FOG
MADISON        CLOUDY    26  22  84 S3        30.25F
MIDDLETON      CLOUDY    28  24  84 CALM      30.25F
WATERTOWN      CLOUDY    24  22  94 CALM      30.26S
MONROE         CLOUDY    27  27 100 CALM      30.23F
JANESVILLE     CLOUDY    28  25  86 CALM      30.26F
$$

WIZ051-052-058>065-066-070>072-201100-
SOUTHEAST WISCONSIN

CITY           SKY/WX    TMP DP  RH WIND       PRES   REMARKS
MILWAUKEE      CLOUDY    27  19  72 SW6       30.27F WCI  20
WAUKESHA       CLOUDY    25  19  80 W3        30.27S
MILWAUKEE/TIMM CLOUDY    27  19  74 SW7       30.28S WCI  19
RACINE         CLOUDY    27  20  75 VRB7      30.29S WCI  19
BURLINGTON     CLOUDY    24  20  86 CALM      30.27S
KENOSHA        CLOUDY    27  22  81 W5        30.27F WCI  22
FOND DU LAC    MOCLDY    20  16  84 CALM      30.26F
SHEBOYGAN      CLOUDY    27  21  78 NW3       30.27S
WEST BEND      CLOUDY    25  19  80 CALM      30.26S
JUNEAU         CLOUDY    24  21  89 CALM      30.26F
$$

LSZ147-162-201100-
LAKE SUPERIOR

STATION/POSITION TIME  TEMP    WIND        PRES    WAVE
                       AIR SEA DIR/SP/G            HT/PER
                 (UTC) (F)     (DEG/KT/KT) (MB)    (FT/S)
DEVILS ISLAND    1000   29     200/  5/  7 1023.1F
PORT WING        0900   28     180/  7/ 10 1022.0R
SAXON HARBOR     0940   27     190/  4/  8 1022.4S
$$

LMZ867-665-643>646-201100-
LAKE MICHIGAN

STATION/POSITION TIME  TEMP    WIND        PRES    WAVE
                       AIR SEA DIR/SP/G            HT/PER
                 (UTC) (F)     (DEG/KT/KT) (MB)    (FT/S)
CHAMBERS ISLAND  0900   18        CALM     1025.1S
NORTHPORT PIER   0926   22     200/  2/  4 1025.1S
SISTER BAY       0943             CALM       N/A
ALGOMA LAKESHORE 0914          330/  6/  7   N/A
KEWAUNEE LAKESHO 0900   27     310/  1/  3 1023.9S
SHEBOYGAN LAKESH 1000   28 33  310/  3/  4 1026.1S
PORT WASHINGTON  0900   28     280/  2/  4 1026.1R
MILWAUKEE LAKESH 0900   28     240/  8/ 10   N/A
KENOSHA   LAKESH 1000   27     280/  8/ 10 1025.1F
$$

TC  - TEMPERATURE IN CELSIUS
VSB - VISIBILITY IN STATUTE MILES
WCI - WIND CHILL INDEX
HX  - HEAT INDEX



USA.gov is the U.S. government's official web portal to all federal, state and local government web resources and services.